When you browse on this site, cookies collect data to enhance your experience and personalize the content and advertising you see.
Visit our Privacy Policy to learn more. By continuing to use the site, you agree to this use of cookies and data.
  • Em Portugal
  • Lista de países
  • Para 7 dias
  • Temperatura da água
  • Mapas de satélite
  • Mapa do tempo
  • Widgets de tempo
  • user-avatar
    Iniciar Sessão

    Previsão horária em Czarnkowo

    Hoje, 27 Março, Quarta-feira

    Tempo Temperatura Precipitação Vento Pressão Humidade
    00:00 +1°C° 0 mm 2 m/s 763 mmHg 84%
    01:00 -1°C° 0 mm 2 m/s 763 mmHg 85%
    02:00 -1°C° 0 mm 2 m/s 763 mmHg 84%
    03:00 -1°C° 0 mm 2 m/s 763 mmHg 83%
    04:00 -1°C° 0 mm 2 m/s 763 mmHg 82%
    05:00 -1°C° 0 mm 2 m/s 764 mmHg 81%
    06:00 +1°C° 0 mm 2 m/s 764 mmHg 79%
    07:00 +1°C° 0 mm 2 m/s 764 mmHg 78%
    08:00 +2°C° 0 mm 3 m/s 764 mmHg 79%
    09:00 +4°C° 0 mm 3 m/s 765 mmHg 80%
    10:00 +6°C° 0 mm 4 m/s 765 mmHg 81%
    11:00 +7°C° 0 mm 4 m/s 765 mmHg 75%
    12:00 +8°C° 0 mm 4 m/s 765 mmHg 70%
    13:00 +9°C° 0 mm 5 m/s 765 mmHg 64%
    14:00 +10°C° 0 mm 4 m/s 765 mmHg 68%
    15:00 +8°C° 0 mm 4 m/s 764 mmHg 72%
    16:00 +8°C° 0 mm 4 m/s 764 mmHg 76%
    17:00 +7°C° 0 mm 4 m/s 764 mmHg 80%
    18:00 +7°C° 0 mm 3 m/s 764 mmHg 84%
    19:00 +7°C° 0 mm 3 m/s 764 mmHg 89%
    20:00 +7°C° 0 mm 3 m/s 764 mmHg 90%
    21:00 +5°C° 0 mm 3 m/s 764 mmHg 92%
    22:00 +5°C° 0 mm 3 m/s 765 mmHg 94%
    23:00 +5°C° 0.1 mm 3 m/s 765 mmHg 95%

    Amanhã, 28 Março, Quinta-feira

    Tempo Temperatura Precipitação Vento Pressão Humidade
    00:00 +5°C° 0.1 mm 3 m/s 765 mmHg 96%
    01:00 +7°C° 0.1 mm 3 m/s 765 mmHg 97%
    02:00 +5°C° 0.1 mm 3 m/s 765 mmHg 97%
    03:00 +5°C° 0.1 mm 3 m/s 765 mmHg 97%
    04:00 +5°C° 0.1 mm 3 m/s 766 mmHg 97%
    05:00 +6°C° 0 mm 2 m/s 766 mmHg 96%
    06:00 +5°C° 0 mm 2 m/s 766 mmHg 96%
    07:00 +5°C° 0 mm 2 m/s 766 mmHg 95%
    08:00 +6°C° 0 mm 2 m/s 767 mmHg 88%
    09:00 +8°C° 0 mm 2 m/s 767 mmHg 81%
    10:00 +9°C° 0 mm 2 m/s 768 mmHg 74%
    11:00 +10°C° 0 mm 2 m/s 768 mmHg 70%
    12:00 +12°C° 0 mm 2 m/s 768 mmHg 66%
    13:00 +13°C° 0 mm 2 m/s 768 mmHg 63%
    14:00 +13°C° 0 mm 2 m/s 768 mmHg 61%
    15:00 +13°C° 0 mm 2 m/s 768 mmHg 60%
    16:00 +14°C° 0 mm 2 m/s 768 mmHg 59%
    17:00 +12°C° 0 mm 2 m/s 768 mmHg 66%
    18:00 +9°C° 0 mm 2 m/s 768 mmHg 73%
    19:00 +8°C° 0 mm 2 m/s 769 mmHg 81%
    20:00 +7°C° 0 mm 2 m/s 769 mmHg 85%
    21:00 +7°C° 0 mm 2 m/s 769 mmHg 89%
    22:00 +7°C° 0 mm 1 m/s 769 mmHg 93%
    23:00 +6°C° 0 mm 2 m/s 769 mmHg 93%

    Depois de amanhã, 29 Março, Sexta-feira

    Tempo Temperatura Precipitação Vento Pressão Humidade
    00:00 +6°C° 0 mm 2 m/s 769 mmHg 94%
    01:00 +6°C° 0 mm 2 m/s 769 mmHg 95%
    02:00 +5°C° 0 mm 2 m/s 769 mmHg 95%
    03:00 +5°C° 0 mm 2 m/s 769 mmHg 96%
    04:00 +5°C° 0 mm 2 m/s 769 mmHg 97%
    05:00 +5°C° 0 mm 2 m/s 769 mmHg 97%
    06:00 +6°C° 0 mm 2 m/s 769 mmHg 97%
    07:00 +6°C° 0 mm 2 m/s 769 mmHg 97%
    08:00 +8°C° 0 mm 2 m/s 769 mmHg 89%
    09:00 +10°C° 0 mm 3 m/s 769 mmHg 80%
    10:00 +12°C° 0 mm 3 m/s 769 mmHg 72%
    11:00 +13°C° 0 mm 3 m/s 769 mmHg 67%
    12:00 +14°C° 0 mm 4 m/s 768 mmHg 62%
    13:00 +15°C° 0 mm 4 m/s 768 mmHg 58%
    14:00 +15°C° 0 mm 4 m/s 768 mmHg 58%
    15:00 +15°C° 0 mm 4 m/s 767 mmHg 58%
    16:00 +15°C° 0 mm 4 m/s 767 mmHg 59%
    17:00 +14°C° 0 mm 3 m/s 767 mmHg 65%
    18:00 +13°C° 0 mm 3 m/s 767 mmHg 71%
    19:00 +12°C° 0 mm 2 m/s 767 mmHg 77%
    20:00 +12°C° 0 mm 2 m/s 766 mmHg 80%
    21:00 +10°C° 0 mm 2 m/s 766 mmHg 83%
    22:00 +9°C° 0 mm 3 m/s 766 mmHg 87%
    23:00 +9°C° 0 mm 3 m/s 766 mmHg 88%

    30 Março, Sábado

    Tempo Temperatura Precipitação Vento Pressão Humidade
    00:00 +9°C° 0 mm 3 m/s 766 mmHg 90%
    01:00 +8°C° 0 mm 3 m/s 766 mmHg 91%
    02:00 +8°C° 0 mm 3 m/s 766 mmHg 92%
    03:00 +7°C° 0 mm 3 m/s 765 mmHg 94%
    04:00 +7°C° 0 mm 2 m/s 765 mmHg 95%
    05:00 +7°C° 0 mm 2 m/s 765 mmHg 94%
    06:00 +7°C° 0 mm 3 m/s 765 mmHg 93%
    07:00 +8°C° 0 mm 3 m/s 765 mmHg 92%
    08:00 +10°C° 0 mm 3 m/s 765 mmHg 85%
    09:00 +11°C° 0 mm 3 m/s 764 mmHg 78%
    10:00 +13°C° 0 mm 4 m/s 764 mmHg 70%
    11:00 +14°C° 0 mm 4 m/s 764 mmHg 66%
    12:00 +15°C° 0 mm 4 m/s 763 mmHg 62%
    13:00 +17°C° 0 mm 4 m/s 762 mmHg 58%
    14:00 +17°C° 0 mm 4 m/s 762 mmHg 58%
    15:00 +17°C° 0 mm 4 m/s 761 mmHg 57%
    16:00 +17°C° 0 mm 4 m/s 760 mmHg 56%
    17:00 +16°C° 0 mm 3 m/s 760 mmHg 62%
    18:00 +13°C° 0 mm 3 m/s 760 mmHg 67%
    19:00 +13°C° 0 mm 2 m/s 759 mmHg 73%
    20:00 +12°C° 0 mm 2 m/s 759 mmHg 74%
    21:00 +10°C° 0 mm 3 m/s 759 mmHg 76%
    22:00 +10°C° 0 mm 3 m/s 758 mmHg 78%
    23:00 +9°C° 0 mm 3 m/s 758 mmHg 79%

    31 Março, Domingo

    Tempo Temperatura Precipitação Vento Pressão Humidade
    00:00 +9°C° 0 mm 3 m/s 757 mmHg 81%
    01:00 +8°C° 0 mm 3 m/s 757 mmHg 82%
    02:00 +8°C° 0 mm 3 m/s 757 mmHg 84%
    03:00 +8°C° 0 mm 3 m/s 756 mmHg 85%
    04:00 +7°C° 0 mm 3 m/s 756 mmHg 87%
    05:00 +7°C° 0.1 mm 4 m/s 756 mmHg 87%
    06:00 +7°C° 0.1 mm 4 m/s 756 mmHg 87%
    07:00 +7°C° 0.1 mm 4 m/s 756 mmHg 87%
    08:00 +8°C° 0 mm 5 m/s 756 mmHg 81%
    09:00 +9°C° 0 mm 6 m/s 756 mmHg 76%
    10:00 +9°C° 0 mm 7 m/s 756 mmHg 70%
    11:00 +9°C° 0 mm 7 m/s 757 mmHg 65%
    12:00 +9°C° 0 mm 7 m/s 757 mmHg 59%
    13:00 +9°C° 0 mm 6 m/s 757 mmHg 54%
    14:00 +8°C° 0 mm 7 m/s 758 mmHg 54%
    15:00 +6°C° 0 mm 7 m/s 758 mmHg 54%
    16:00 +5°C° 0 mm 7 m/s 758 mmHg 54%
    17:00 +4°C° 0 mm 7 m/s 759 mmHg 59%
    18:00 +3°C° 0 mm 6 m/s 760 mmHg 64%
    19:00 +2°C° 0 mm 5 m/s 761 mmHg 69%
    20:00 +1°C° 0 mm 4 m/s 761 mmHg 72%
    21:00 +1°C° 0 mm 3 m/s 762 mmHg 75%
    22:00 0°C° 0 mm 3 m/s 762 mmHg 78%
    23:00 +1°C° 0 mm 2 m/s 763 mmHg 79%

    1 Abril, Segunda-feira

    Tempo Temperatura Precipitação Vento Pressão Humidade
    00:00 -1°C° 0 mm 2 m/s 763 mmHg 80%
    01:00 -1°C° 0 mm 2 m/s 763 mmHg 80%
    02:00 -1°C° 0 mm 2 m/s 764 mmHg 81%
    03:00 -1°C° 0 mm 2 m/s 764 mmHg 82%
    04:00 -1°C° 0 mm 2 m/s 764 mmHg 82%
    05:00 -1°C° 0 mm 2 m/s 765 mmHg 78%
    06:00 +1°C° 0 mm 2 m/s 765 mmHg 73%
    07:00 +2°C° 0 mm 2 m/s 765 mmHg 69%
    08:00 +2°C° 0 mm 3 m/s 766 mmHg 61%
    09:00 +3°C° 0 mm 3 m/s 766 mmHg 54%
    10:00 +5°C° 0 mm 3 m/s 766 mmHg 46%
    11:00 +5°C° 0 mm 3 m/s 766 mmHg 44%
    12:00 +7°C° 0 mm 3 m/s 766 mmHg 42%
    13:00 +7°C° 0 mm 3 m/s 765 mmHg 41%
    14:00 +7°C° 0 mm 3 m/s 765 mmHg 42%
    15:00 +7°C° 0 mm 3 m/s 765 mmHg 42%
    16:00 +7°C° 0 mm 3 m/s 764 mmHg 43%
    17:00 +5°C° 0 mm 2 m/s 764 mmHg 49%
    18:00 +4°C° 0 mm 2 m/s 764 mmHg 55%
    19:00 +2°C° 0 mm 2 m/s 763 mmHg 60%
    20:00 +2°C° 0 mm 2 m/s 763 mmHg 62%
    21:00 +1°C° 0 mm 2 m/s 763 mmHg 63%
    22:00 -1°C° 0 mm 2 m/s 763 mmHg 65%
    23:00 -1°C° 0 mm 2 m/s 762 mmHg 66%
    Mostrar mais